Location: Gro� Glienicke
(52.4675°N, 13.1079°E)
Time: 02:32:11
(UTC+00:00)

Cosmos 2219 Rocket - Pass Details

Date: 06 July 2020
Orbit: 827 x 847 km, 71.0° (Epoch: 04 August)

Event Time Altitude Azimuth Distance (km) Brightness Sun altitude
Rises 21:59:11 0° 232° (SW) 3,362 5.1 -13.3°
Reaches altitude 10° 22:01:43 10° 238° (WSW) 2,434 4.4 -13.4°
Maximum altitude 22:07:03 45° 311° (NW) 1,129 3.3 -13.6°
Drops below altitude 10° 22:12:27 10° 24° (NNE) 2,458 5.4 -13.8°
Sets 22:15:01 0° 31° (NNE) 3,399 6.1 -13.9°
